Location: Ellerstadt
(49.4644°N, 8.2615°E)
Time: 04:13:19
(UTC+00:00)

Ariane Rocket - Visible Passes

Search period start: 14 June 2021 00:00
Search period end: 24 June 2021 00:00
Orbit: 761 x 769 km, 98.7° (Epoch: 13 June)

Date Brightness Start Highest point End Pass type
(mag) Time Alt. Az. Time Alt. Az. Time Alt. Az.
15 Jun 5.3 20:52:26 10° SW 20:56:09 20° W 20:59:53 10° NW visible
16 Jun 4.3 20:14:13 10° SSW 20:18:59 40° W 20:23:48 10° NNW visible
17 Jun 5.6 21:19:49 10° WSW 21:21:49 12° W 21:23:50 10° WNW visible
18 Jun 5.0 20:40:22 10° SSW 20:44:31 25° W 20:48:43 10° NW visible
20 Jun 5.5 21:07:09 10° SW 21:10:09 16° W 21:13:10 10° NW visible
21 Jun 4.7 20:28:25 10° SSW 20:32:55 31° W 20:37:27 10° NNW visible
23 Jun 5.3 20:54:51 10° SW 20:58:30 19° W 21:02:10 10° NW visible
